Starlink 1686

operational
NORAD ID: 46328 Int'l Des: 2020-062 Owner: SPXS Country: US Constellation: starlink
LEOCIRCULARSTARLINK_TYPE

About Starlink 1686

Description loading...

Live Position

Loading 3D Globe...

Upcoming Passes

Altitude History

Altitude vs Time

uPlot chart will show altitude changes over time

Two-Line Element Set

1 46328U 20062D 25304.73485618 .00073621 00000-0 21692-2 0 9990
2 46328 53.0533 213.3611 0002475 111.7427 248.3838 15.34389462285187
Epoch: Oct 31, 2025 • Age: 7 hours

Current Status

Altitude 463.5 km
Velocity 7.64 km/s
Sub-Earth Point -3.56°S, 16.25°W
Launch Date Sep 3, 2020
Age 5.1 years
Type internet

Technical Details

Classification Payload
Mass 260.00 kg
Dry Mass 248.00 kg
Total Mass 260.00 kg
Length 0.20 m
Diameter 2.80 m
Span 9.00 m
Shape Box + pan
Manufacturer SPXS
Bus Type Starlink
Phase Status In Orbit
Owner/State SPXS/US

Large Constellations

Loading constellations...